Mora, MN

2:14 AM CST on December 08, 2016 (GMT -0600)
Mora Municipal

Weather History for KJMR - April, 2014

Change the Weather History Date:

Tuesday, April 22, 2014

  Actual Average Record
Temperature  
Mean Temperature 42 °F -  
Max Temperature 55 °F 60 °F 92 °F (1980)
Min Temperature 30 °F 33 °F 19 °F (1936)
Degree Days  
Heating Degree Days 22    
Moisture  
Dew Point 27 °F    
Average Humidity 61    
Maximum Humidity 93    
Minimum Humidity 26    
Precipitation  
Precipitation 0.00 in - - ()
Sea Level Pressure  
Sea Level Pressure 30.11 in    
Wind  
Wind Speed 2 mph (North)    
Max Wind Speed 13 mph    
Max Gust Speed 20 mph    
Visibility 10 miles    
Events      
Averages and records for this station are not official NWS values.
T = Trace of Precipitation, MM = Missing Value Source: NWS Daily Summary

Daily Weather History Graph

Daily Weather History Graph

Search for Another Location

Airport or City:

Trip Planner

Search our weather history database for the weather conditions in past years. The results will help you decide how hot, cold, wet, or windy it might be!

Date:

Astronomy

Apr. 22, 2014 Rise Set
Actual Time 6:14 AM CDT 8:09 PM CDT
Civil Twilight 5:42 AM CDT 8:41 PM CDT
Nautical Twilight 5:03 AM CDT 9:20 PM CDT
Astronomical Twilight 4:20 AM CDT 10:03 PM CDT
Moon 2:26 AM CDT (4/22) 12:49 PM CDT (4/22)
Length of Visible Light 14h 58m
Length of Day
13h 54m
Last Quarter, 46% of the Moon is Illuminated
Apr 22
Last Quarter
Apr 29
New
May 6
First Quarter
May 14
Full
May 21
Last Quarter

Hourly Weather History & Observations

Time (CDT) Temp. Windchill Dew Point Humidity Pressure Visibility Wind Dir Wind Speed Gust Speed Precip Events Conditions
12:10 AM 33.8 °F - 30.2 °F 87% 30.09 in 10.0 mi Calm Calm - N/A   Clear
12:30 AM 33.8 °F - 28.4 °F 81% 30.08 in 10.0 mi Calm Calm - N/A   Clear
12:50 AM 33.8 °F - 28.4 °F 81% 30.10 in 10.0 mi Calm Calm - N/A   Clear
1:10 AM 33.8 °F - 28.4 °F 81% 30.10 in 10.0 mi Calm Calm - N/A   Clear
1:29 AM 35.6 °F - 28.4 °F 75% 30.11 in 10.0 mi Calm Calm - N/A   Clear
1:50 AM 33.8 °F - 28.4 °F 81% 30.11 in 10.0 mi Calm Calm - N/A   Clear
2:10 AM 33.8 °F - 26.6 °F 75% 30.11 in 10.0 mi Calm Calm - N/A   Clear
2:30 AM 33.8 °F - 26.6 °F 75% 30.12 in 10.0 mi Calm Calm - N/A   Clear
2:50 AM 32.0 °F - 26.6 °F 80% 30.12 in 10.0 mi Calm Calm - N/A   Clear
3:10 AM 32.0 °F - 26.6 °F 80% 30.12 in 10.0 mi Calm Calm - N/A   Clear
3:30 AM 32.0 °F - 26.6 °F 80% 30.12 in 10.0 mi Calm Calm - N/A   Clear
3:50 AM 32.0 °F - 26.6 °F 80% 30.12 in 10.0 mi Calm Calm - N/A   Clear
4:10 AM 33.8 °F - 26.6 °F 75% 30.13 in 10.0 mi Calm Calm - N/A   Clear
4:30 AM 32.0 °F - 26.6 °F 80% 30.12 in 10.0 mi Calm Calm - N/A   Clear
4:50 AM 32.0 °F - 24.8 °F 75% 30.12 in 10.0 mi Calm Calm - N/A   Clear
5:10 AM 32.0 °F - 26.6 °F 80% 30.12 in 10.0 mi Calm Calm - N/A   Clear
5:30 AM 32.0 °F - 26.6 °F 80% 30.12 in 10.0 mi Calm Calm - N/A   Clear
5:50 AM 32.0 °F - 26.6 °F 80% 30.12 in 10.0 mi Calm Calm - N/A   Clear
6:10 AM 30.2 °F - 24.8 °F 80% 30.12 in 10.0 mi Calm Calm - N/A   Clear
6:30 AM 30.2 °F - 24.8 °F 80% 30.14 in 10.0 mi Calm Calm - N/A   Clear
6:50 AM 30.2 °F - 26.6 °F 86% 30.14 in 10.0 mi Calm Calm - N/A   Clear
7:09 AM 32.0 °F - 26.6 °F 80% 30.14 in 10.0 mi Calm Calm - N/A   Clear
7:30 AM 33.8 °F - 26.6 °F 75% 30.14 in 10.0 mi Calm Calm - N/A   Clear
7:50 AM 35.6 °F - 28.4 °F 75% 30.14 in 10.0 mi Calm Calm - N/A   Clear
8:10 AM 35.6 °F - 28.4 °F 75% 30.15 in 10.0 mi Calm Calm - N/A   Clear
8:30 AM 37.4 °F - 28.4 °F 70% 30.15 in 10.0 mi Calm Calm - N/A   Clear
8:50 AM 37.4 °F 31.4 °F 26.6 °F 65% 30.15 in 10.0 mi North 8.1 mph - N/A   Clear
9:10 AM 39.2 °F 35.0 °F 26.6 °F 61% 30.15 in 10.0 mi North 5.8 mph - N/A   Clear
9:30 AM 41.0 °F - 26.6 °F 57% 30.15 in 10.0 mi Calm Calm - N/A   Clear
9:50 AM 42.8 °F 40.1 °F 26.6 °F 53% 30.16 in 10.0 mi North 4.6 mph - N/A   Clear
10:10 AM 42.8 °F 39.3 °F 26.6 °F 53% 30.15 in 10.0 mi North 5.8 mph - N/A   Clear
10:30 AM 44.6 °F - 28.4 °F 53% 30.15 in 10.0 mi Calm Calm - N/A   Clear
10:50 AM 44.6 °F 40.7 °F 30.2 °F 57% 30.15 in 10.0 mi NNW 6.9 mph - N/A   Clear
11:10 AM 44.6 °F - 28.4 °F 53% 30.15 in 10.0 mi Calm Calm - N/A   Clear
11:30 AM 44.6 °F 43.1 °F 28.4 °F 53% 30.15 in 10.0 mi NW 3.5 mph 16.1 mph N/A   Clear
11:50 AM 46.4 °F 43.5 °F 28.4 °F 50% 30.15 in 10.0 mi NNW 5.8 mph - N/A   Clear
12:10 PM 46.4 °F 40.7 °F 28.4 °F 50% 30.15 in 10.0 mi NNW 12.7 mph 17.3 mph N/A   Clear
12:30 PM 46.4 °F 41.1 °F 28.4 °F 50% 30.14 in 10.0 mi NW 11.5 mph 17.3 mph N/A   Clear
12:50 PM 48.2 °F - 28.4 °F 46% 30.14 in 10.0 mi NW 9.2 mph 17.3 mph N/A   Clear
1:10 PM 48.2 °F - 28.4 °F 46% 30.13 in 10.0 mi NW 11.5 mph - N/A   Clear
1:30 PM 50.0 °F - 28.4 °F 43% 30.13 in 10.0 mi NNW 11.5 mph 18.4 mph N/A   Clear
1:50 PM 50.0 °F - 28.4 °F 43% 30.12 in 10.0 mi WNW 12.7 mph - N/A   Clear
2:10 PM 50.0 °F - 28.4 °F 43% 30.11 in 10.0 mi NNW 12.7 mph 17.3 mph N/A   Clear
2:30 PM 51.8 °F - 28.4 °F 41% 30.11 in 10.0 mi NW 12.7 mph 16.1 mph N/A   Clear
2:50 PM 53.6 °F - 28.4 °F 38% 30.11 in 10.0 mi NW 8.1 mph 19.6 mph N/A   Clear
3:10 PM 53.6 °F - 28.4 °F 38% 30.10 in 10.0 mi North 4.6 mph 17.3 mph N/A   Clear
3:30 PM 53.6 °F - 26.6 °F 35% 30.09 in 10.0 mi NNW 6.9 mph 16.1 mph N/A   Clear
3:50 PM 53.6 °F - 28.4 °F 38% 30.08 in 10.0 mi North 4.6 mph - N/A   Clear
4:10 PM 53.6 °F - 28.4 °F 38% 30.08 in 10.0 mi North 5.8 mph - N/A   Clear
4:29 PM 53.6 °F - 26.6 °F 35% 30.07 in 10.0 mi NNW 5.8 mph - N/A   Clear
4:50 PM 53.6 °F - 26.6 °F 35% 30.07 in 10.0 mi NNW 3.5 mph - N/A   Clear
5:10 PM 55.4 °F - 26.6 °F 33% 30.06 in 10.0 mi East 4.6 mph - N/A   Clear
5:30 PM 53.6 °F - 23.0 °F 30% 30.07 in 10.0 mi Calm Calm - N/A   Clear
5:50 PM 55.4 °F - 23.0 °F 29% 30.06 in 10.0 mi ENE 5.8 mph - N/A   Clear
6:10 PM 53.6 °F - 19.4 °F 26% 30.06 in 10.0 mi ENE 5.8 mph - N/A   Clear
6:30 PM 53.6 °F - 19.4 °F 26% 30.06 in 10.0 mi East 4.6 mph - N/A   Clear
6:50 PM 53.6 °F - 21.2 °F 28% 30.06 in 10.0 mi East 6.9 mph - N/A   Clear
7:10 PM 50.0 °F - 21.2 °F 32% 30.06 in 10.0 mi ENE 3.5 mph - N/A   Clear
7:30 PM 50.0 °F - 21.2 °F 32% 30.06 in 10.0 mi Calm Calm - N/A   Clear
7:50 PM 48.2 °F - 21.2 °F 34% 30.07 in 10.0 mi East 3.5 mph - N/A   Clear
8:10 PM 44.6 °F - 28.4 °F 53% 30.07 in 10.0 mi Calm Calm - N/A   Clear
8:30 PM 42.8 °F - 28.4 °F 57% 30.07 in 10.0 mi Calm Calm - N/A   Clear
8:50 PM 41.0 °F - 23.0 °F 49% 30.09 in 10.0 mi Calm Calm - N/A   Clear
9:10 PM 39.2 °F - 23.0 °F 52% 30.09 in 10.0 mi Calm Calm - N/A   Clear
9:29 PM 37.4 °F - 30.2 °F 75% 30.10 in 10.0 mi Calm Calm - N/A   Clear
9:50 PM 35.6 °F - 26.6 °F 70% 30.10 in 10.0 mi Calm Calm - N/A   Clear
10:10 PM 35.6 °F - 30.2 °F 81% 30.09 in 10.0 mi Calm Calm - N/A   Clear
10:30 PM 33.8 °F - 30.2 °F 87% 30.10 in 10.0 mi Calm Calm - N/A   Clear
10:50 PM 35.6 °F - 30.2 °F 81% 30.09 in 10.0 mi Calm Calm - N/A   Clear
11:10 PM 32.0 °F - 28.4 °F 87% 30.10 in 10.0 mi Calm Calm - N/A   Clear
11:30 PM 32.0 °F - 30.2 °F 93% 30.10 in 10.0 mi Calm Calm - N/A   Clear
11:50 PM 32.0 °F - 28.4 °F 87% 30.10 in 10.0 mi Calm Calm - N/A   Clear